EW4993 Weather Reports


time (UTC)temp
C
wind
direction
speed
KPH
gust
KPH
rain 1hr
cm
rain 24hr
cm
rain mn
cm
humidity
%
barometer
mb
20260506061543 23 200 9.7 22.5 0.00 0.00 0.00 74 982.7
20260506044634 23 184 9.7 19.3 0.00 0.00 0.00 75 982.9
20260506043028 23 201 8.0 16.1 0.00 0.00 0.00 75 982.9
20260506041524 23 213 9.7 16.1 0.00 0.00 0.00 75 982.7
20260506040028 23 198 8.0 12.9 0.00 0.00 0.00 76 982.6
20260506034542 23 190 4.8 11.3 0.00 0.00 0.00 76 982.6
20260506033017 23 199 8.0 16.1 0.00 0.00 0.00 77 982.3
20260506031516 23 194 4.8 9.7 0.00 0.00 0.00 78 982.2
20260506030011 23 186 4.8 11.3 0.00 0.00 0.00 79 981.9
20260506024509 23 191 4.8 14.5 0.00 0.00 0.00 80 981.7
20260506023107 23 187 6.4 12.9 0.00 0.00 0.00 80 981.3
20260506021547 24 194 4.8 11.3 0.00 0.00 0.00 81 981.0
20260506020027 24 191 3.2 8.0 0.00 0.00 0.00 81 981.0
20260506014529 24 198 4.8 12.9 0.00 0.00 0.00 81 980.8
20260506013013 25 192 3.2 14.5 0.00 0.00 0.00 82 980.7
20260506011514 25 186 4.8 14.5 0.00 0.00 0.00 81 980.6
20260506010007 25 192 4.8 14.5 0.00 0.00 0.00 81 980.6
20260506004505 26 190 6.4 14.5 0.00 0.00 0.00 80 980.6
20260506003002 26 198 4.8 11.3 0.00 0.00 0.00 80 980.6
20260506001600 26 197 6.4 12.9 0.00 0.00 0.00 79 980.7
20260506000058 26 208 9.7 16.1 0.00 0.00 0.00 78 980.7
20260505234635 27 210 8.0 17.7 0.00 0.00 0.00 77 980.7
20260505233039 27 242 11.3 17.7 0.00 0.00 0.00 76 980.5
20260505231536 27 196 6.4 12.9 0.00 0.00 0.00 77 980.5
20260505230014 27 185 9.7 20.9 0.00 0.00 0.00 75 980.2
20260505224512 27 229 9.7 17.7 0.00 0.00 0.00 75 980.3
20260505223057 27 185 11.3 19.3 0.00 0.00 0.00 75 980.3
20260505221555 27 215 14.5 24.1 0.00 0.00 0.00 75 980.1
20260505220051 27 177 12.9 24.1 0.00 0.00 0.00 74 980.3
20260505214539 27 225 14.5 22.5 0.00 0.00 0.00 73 980.4
20260505213014 28 233 14.5 30.6 0.00 0.00 0.00 73 980.6
20260505211511 27 220 16.1 30.6 0.00 0.00 0.00 73 980.8
20260505210052 27 244 19.3 29.0 0.00 0.00 0.00 74 981.0
20260505204550 27 221 16.1 32.2 0.00 0.00 0.00 75 981.1
20260505203031 27 210 17.7 30.6 0.00 0.00 0.00 76 981.3
20260505201531 27 206 17.7 27.4 0.00 0.00 0.00 76 981.6
20260505200012 27 230 12.9 30.6 0.00 0.00 0.00 77 981.6
20260505194527 26 196 16.1 25.7 0.00 0.00 0.00 76 981.8
20260505193055 26 219 14.5 27.4 0.00 0.00 0.00 76 982.0
20260505191556 26 206 16.1 27.4 0.00 0.00 0.00 76 982.0
20260505190030 26 247 16.1 25.7 0.00 0.00 0.00 77 982.1
20260505184529 26 251 16.1 27.4 0.00 0.00 0.00 79 982.4
20260505183013 25 249 16.1 29.0 0.00 0.00 0.00 78 982.6
20260505181510 25 232 16.1 25.7 0.00 0.00 0.00 80 982.9
20260505180058 24 248 14.5 25.7 0.00 0.00 0.00 81 983.0
20260505174609 24 241 16.1 29.0 0.00 0.00 0.00 81 983.1
20260505173034 23 227 16.1 27.4 0.00 0.00 0.00 81 983.1
20260505171535 23 237 14.5 20.9 0.00 0.00 0.00 81 983.3
20260505170023 23 242 17.7 25.7 0.00 0.00 0.00 82 983.3
20260505164518 22 257 14.5 27.4 0.00 0.00 0.00 82 983.3
20260505163056 22 241 17.7 24.1 0.00 0.00 0.00 81 983.3
20260505161603 22 244 17.7 27.4 0.00 0.00 0.00 81 983.4
20260505153023 22 250 22.5 37.0 0.00 0.00 0.00 81 983.2
20260505151519 22 244 19.3 29.0 0.00 0.00 0.00 80 983.1
20260505124547 21 232 12.9 24.1 0.00 0.00 0.00 78 982.3
20260505123105 21 226 12.9 22.5 0.00 0.00 0.00 79 982.0
20260505121528 21 247 9.7 17.7 0.00 0.00 0.00 79 981.7
20260505120030 20 244 11.3 24.1 0.00 0.00 0.00 79 981.6
20260505114510 20 224 11.3 24.1 0.00 0.00 0.00 79 981.5
20260505113009 20 229 12.9 22.5 0.00 0.00 0.00 79 981.5
20260505111604 20 217 14.5 30.6 0.00 0.00 0.00 80 981.4
20260505101510 20 225 12.9 22.5 0.00 0.00 0.00 81 981.5
20260505100009 20 219 12.9 29.0 0.00 0.00 0.00 81 981.7
20260505094551 21 237 12.9 24.1 0.00 0.00 0.00 80 981.8
20260505093050 21 213 12.9 27.4 0.00 0.00 0.00 80 981.8
20260505091534 21 232 14.5 27.4 0.00 0.00 0.00 80 982.0
20260505090034 21 240 17.7 32.2 0.00 0.00 0.00 80 982.1
20260505084517 21 215 14.5 25.7 0.00 0.00 0.00 80 982.1
20260505083013 21 204 19.3 32.2 0.00 0.00 0.00 80 982.2
20260505081553 21 248 20.9 29.0 0.00 0.00 0.00 81 982.5
20260505080045 21 240 16.1 29.0 0.00 0.00 0.00 81 982.4
20260505074526 21 241 16.1 30.6 0.00 0.00 0.00 81 982.6
20260505073023 21 249 12.9 37.0 0.00 0.00 0.00 81 982.7
20260505071503 21 188 16.1 30.6 0.00 0.00 0.00 81 982.9
20260505070002 21 223 17.7 38.6 0.00 0.00 0.00 80 983.0
20260505064555 20 216 17.7 30.6 0.00 0.00 0.00 80 983.0
20260505063043 20 224 17.7 24.1 0.00 0.00 0.00 80 983.2